Overview Statistics Trail Chart Weather Telemetry Raw packets
 

This is the latest recevied weather packets stored in our database for station/object KQ7A. If no packets are shown the sender has not sent any weather packets the latest 10 day(s).

<< 20 21 22 23 24 25 26 >>
Time Temp. Humidity Pressure Rain* Wind** Luminosity Snow
1788540854 16.67° C 49% 1014.6 hPa 0 mm - 129 W/m² -
1788540553 16.11° C 49% 1014.6 hPa 0 mm - 115 W/m² -
1788540253 16.11° C 48% 1014.6 hPa 0 mm - 97 W/m² -
1788539949 16.11° C 49% 1014.4 hPa 0 mm - 99 W/m² -
1788539649 16.11° C 49% 1014.4 hPa 0 mm - 96 W/m² -
1788539348 16.11° C 49% 1014.1 hPa 0 mm - 79 W/m² -
1788539044 16.11° C 50% 1013.9 hPa 0 mm - 72 W/m² -
1788538739 16.11° C 50% 1013.9 hPa 0 mm - 91 W/m² -
1788538434 16.11° C 50% 1013.9 hPa 0 mm - 81 W/m² -
1788538124 16.11° C 50% 1014.1 hPa 0 mm - 74 W/m² -
1788537818 16.11° C 50% 1013.9 hPa 0 mm - 63 W/m² -
1788537513 16.11° C 48% 1013.9 hPa 0 mm - 61 W/m² -
1788537208 16.11° C 51% 1014 hPa 0 mm - 58 W/m² -
1788536906 15.56° C 52% 1014 hPa 0 mm - 58 W/m² -
1788536601 15.56° C 52% 1014 hPa 0 mm - 50 W/m² -
1788536298 15.56° C 52% 1013.9 hPa 0 mm - 48 W/m² -
1788535992 15.56° C 51% 1013.7 hPa 0 mm - 50 W/m² -
1788535689 15.56° C 51% 1013.6 hPa 0 mm - 52 W/m² -
1788535383 15.56° C 54% 1013.6 hPa 0 mm - 35 W/m² -
1788535078 15.56° C 52% 1013.6 hPa 0 mm - 35 W/m² -
1788534777 15° C 54% 1013.8 hPa 0 mm - 38 W/m² -
1788534474 15° C 54% 1013.7 hPa 0 mm - 32 W/m² -
1788534168 15° C 54% 1013.9 hPa 0 mm - 29 W/m² -
1788533866 15.56° C 52% 1013.8 hPa 0 mm - 27 W/m² -
1788533562 15.56° C 51% 1013.6 hPa 0 mm - 30 W/m² -

* Rain latest hour (hover to see other rain measurements)
** Current wind speed in m/s (hover to see current wind gust speed)